Time_in_sec,gx,gy,gz
1314891609.79253554,0.21022333,-0.10254283,-0.97226083
1314891609.84059191,0.21020138,-0.10255648,-0.97226414
1314891609.89252067,0.20982435,-0.10202534,-0.97240145
1314891609.94553185,0.20971533,-0.10199134,-0.97242853
1314891609.99258733,0.20975431,-0.10171658,-0.97244890
1314891610.04457521,0.20972475,-0.10185496,-0.97244079
1314891610.09254408,0.20974834,-0.10197574,-0.97242305
1314891610.14162445,0.21081162,-0.10142122,-0.97225110
1314891610.19258666,0.21079844,-0.10129368,-0.97226725
1314891610.24551702,0.21069249,-0.10132421,-0.97228703
1314891610.29253387,0.21049755,-0.10113166,-0.97234930
1314891610.34082770,0.21068292,-0.10106056,-0.97231655
1314891610.39361501,0.21169069,-0.09962358,-0.97224595
1314891610.44062996,0.21161725,-0.09950639,-0.97227394
1314891610.49254036,0.21176766,-0.09956367,-0.97223533
1314891610.54061961,0.21186184,-0.09955480,-0.97221572
1314891610.59259009,0.21203662,-0.09947258,-0.97218603
1314891610.64162111,0.21185276,-0.09945491,-0.97222792
1314891610.69260216,0.21411932,-0.09834559,-0.97184415
1314891610.74062347,0.21411711,-0.09854490,-0.97182445
1314891610.79252076,0.21402746,-0.09869824,-0.97182864
1314891610.84451151,0.21414000,-0.09862171,-0.97181162
1314891610.89365649,0.21508729,-0.09857981,-0.97160665
1314891610.94057846,0.21485190,-0.09874817,-0.97164163
1314891610.99256301,0.21489803,-0.09873804,-0.97163246
1314891611.04056644,0.21475343,-0.09896776,-0.97164106
1314891611.09254503,0.21460255,-0.09882362,-0.97168906
1314891611.14057279,0.21382794,-0.10029710,-0.97170886
1314891611.19245148,0.21370769,-0.10033670,-0.97173122
1314891611.24454188,0.21381132,-0.10037041,-0.97170495
1314891611.29462266,0.21377506,-0.10035589,-0.97171442
1314891611.34347892,0.21373857,-0.10015222,-0.97174346
1314891611.39061928,0.21333637,-0.10144229,-0.97169803
1314891611.44444823,0.21311878,-0.10130285,-0.97176032
1314891611.49469638,0.21310993,-0.10135306,-0.97175702
1314891611.54458761,0.21319483,-0.10126178,-0.97174792
1314891611.59458518,0.21312299,-0.10093755,-0.97179741
1314891611.64058852,0.21325332,-0.10096044,-0.97176644
1314891611.69352484,0.21273738,-0.10235598,-0.97173353
1314891611.74114609,0.21269214,-0.10234977,-0.97174409
1314891611.79507971,0.21256587,-0.10218663,-0.97178889
1314891611.84127212,0.21252962,-0.10213521,-0.97180222
1314891611.89353132,0.21161982,-0.10195660,-0.97201950
1314891611.94128704,0.21158749,-0.10176594,-0.97204652
1314891611.99409938,0.21151006,-0.10180271,-0.97205952
1314891612.04160452,0.21162550,-0.10197187,-0.97201666
1314891612.09353256,0.21146875,-0.10216311,-0.97203069
1314891612.14049959,0.21148696,-0.10157772,-0.97208808
1314891612.19497180,0.21109195,-0.10171862,-0.97215920
1314891612.24059391,0.21086296,-0.10169044,-0.97221184
1314891612.29257941,0.21104078,-0.10141942,-0.97220157
1314891612.34114337,0.21115002,-0.10132209,-0.97218800
1314891612.39355993,0.21123631,-0.10060192,-0.97224404
1314891612.44161463,0.21124251,-0.10066315,-0.97223635
1314891612.49250627,0.21136020,-0.10070323,-0.97220663
1314891612.54092717,0.21136976,-0.10074784,-0.97219993
1314891612.59276819,0.21102153,-0.10049798,-0.97230143
1314891612.64056540,0.21070576,-0.10046281,-0.97237354
1314891612.69257045,0.20939606,-0.10035514,-0.97266754
1314891612.74064231,0.20948279,-0.10036044,-0.97264831
1314891612.79253316,0.20975452,-0.10030755,-0.97259521
1314891612.84088612,0.20958926,-0.10037678,-0.97262369
1314891612.89258647,0.20815291,-0.10098557,-0.97286910
1314891612.94153786,0.20805905,-0.10100116,-0.97288756
1314891612.99292874,0.20812007,-0.10124736,-0.97284891
1314891613.04107237,0.20815848,-0.10124125,-0.97284133
1314891613.09265208,0.20807658,-0.10145019,-0.97283709
1314891613.14459872,0.20835006,-0.10145907,-0.97277763
1314891613.19321513,0.20782000,-0.10145100,-0.97289184
1314891613.24556947,0.20787891,-0.10170990,-0.97285223
1314891613.29314971,0.20787276,-0.10149188,-0.97287631
1314891613.34062195,0.20767040,-0.10165062,-0.97290295
1314891613.39366317,0.20746272,-0.10244433,-0.97286401
1314891613.44551063,0.20726895,-0.10243983,-0.97290578
1314891613.49268937,0.20768342,-0.10260195,-0.97280031
1314891613.54060888,0.20781891,-0.10243032,-0.97278946
1314891613.59259486,0.20796666,-0.10233326,-0.97276810
1314891613.64061999,0.20888393,-0.10191308,-0.97261566
1314891613.69363308,0.20880872,-0.10190799,-0.97263235
1314891613.74059558,0.20880592,-0.10203635,-0.97261949
1314891613.79518223,0.20892063,-0.10175664,-0.97262416
1314891613.84167552,0.20891892,-0.10204685,-0.97259412
1314891613.89378333,0.20917532,-0.10243811,-0.97249788
1314891613.94058013,0.20906181,-0.10242615,-0.97252354
1314891613.99258137,0.20910844,-0.10244235,-0.97251181
1314891614.04058671,0.20922560,-0.10254542,-0.97247575
1314891614.09367728,0.20922007,-0.10263898,-0.97246707
1314891614.14050961,0.20867723,-0.10403954,-0.97243488
1314891614.19260716,0.20873130,-0.10402864,-0.97242444
1314891614.24051881,0.20887768,-0.10409389,-0.97238602
1314891614.29249883,0.20867632,-0.10394107,-0.97244560
1314891614.34053540,0.20886390,-0.10409046,-0.97238935
1314891614.39247894,0.20820715,-0.10594084,-0.97233036
1314891614.44152689,0.20836256,-0.10592984,-0.97229826
1314891614.49258733,0.20854106,-0.10603807,-0.97224820
1314891614.54058647,0.20837751,-0.10603964,-0.97228309
1314891614.59254026,0.20857559,-0.10604845,-0.97223966
1314891614.64058852,0.20862898,-0.10597076,-0.97223667
1314891614.69492912,0.20805692,-0.10746884,-0.97219482
1314891614.74057984,0.20831479,-0.10740391,-0.97214677
1314891614.80149221,0.20821070,-0.10741943,-0.97216736
1314891614.84058666,0.20821024,-0.10734965,-0.97217516
1314891614.89353514,0.20830440,-0.10770827,-0.97211533
1314891614.94152236,0.20827102,-0.10769402,-0.97212405
1314891614.99317575,0.20826487,-0.10766310,-0.97212880
1314891615.04060674,0.20794965,-0.10753688,-0.97221025
1314891615.09361529,0.20796014,-0.10746761,-0.97221566
1314891615.14058208,0.20836028,-0.10754409,-0.97212153
1314891615.19317794,0.20823456,-0.10776526,-0.97212397
1314891615.24062324,0.20824355,-0.10784968,-0.97211268
1314891615.29250884,0.20807070,-0.10779547,-0.97215571
1314891615.34053230,0.20797509,-0.10764601,-0.97219273
1314891615.39303875,0.20853550,-0.10811677,-0.97202043
1314891615.44161248,0.20848351,-0.10824258,-0.97201758
1314891615.49249029,0.20864723,-0.10810654,-0.97199759
1314891615.54062033,0.20882264,-0.10823801,-0.97194529
1314891615.59360719,0.20900482,-0.10816669,-0.97191407
1314891615.64062715,0.20967737,-0.10786773,-0.97180243
1314891615.69288397,0.20935637,-0.10784157,-0.97187453
1314891615.74061441,0.20940567,-0.10770169,-0.97187942
1314891615.79252100,0.20910073,-0.10787319,-0.97192606
1314891615.84058738,0.20904004,-0.10767219,-0.97196140
1314891615.89362597,0.20961616,-0.10771352,-0.97183274
1314891615.94161177,0.20968085,-0.10773072,-0.97181687
1314891615.99280667,0.20960872,-0.10744136,-0.97186446
1314891616.04450679,0.20968314,-0.10744255,-0.97184828
1314891616.09257913,0.20950037,-0.10751581,-0.97187959
1314891616.14451885,0.21054476,-0.10725746,-0.97168243
1314891616.19248629,0.21034194,-0.10732109,-0.97171933
1314891616.24062991,0.21039400,-0.10720497,-0.97172088
1314891616.29353285,0.21062488,-0.10743249,-0.97164573
1314891616.34549665,0.21069257,-0.10721049,-0.97165557
1314891616.39282560,0.21143729,-0.10691342,-0.97152653
1314891616.44163465,0.21124786,-0.10676063,-0.97158453
1314891616.49259281,0.21131725,-0.10660201,-0.97158686
1314891616.54062438,0.21141218,-0.10659849,-0.97156660
1314891616.59426761,0.21137394,-0.10640642,-0.97159597
1314891616.64459729,0.21196037,-0.10567447,-0.97154810
1314891616.69251370,0.21203865,-0.10586981,-0.97150975
1314891616.74059701,0.21193556,-0.10582626,-0.97153699
1314891616.79250932,0.21175745,-0.10581437,-0.97157712
1314891616.84059763,0.21186145,-0.10589427,-0.97154574
1314891616.89259291,0.21277163,-0.10514020,-0.97142873
1314891616.94058681,0.21259473,-0.10505920,-0.97147622
1314891616.99251628,0.21252427,-0.10475935,-0.97152402
1314891617.04052973,0.21278904,-0.10480249,-0.97146141
1314891617.09253621,0.21293322,-0.10478052,-0.97143218
1314891617.14053059,0.21332236,-0.10477057,-0.97134788
1314891617.19251752,0.21311333,-0.10479655,-0.97139096
1314891617.24051046,0.21317219,-0.10461469,-0.97139764
1314891617.29356313,0.21346957,-0.10463902,-0.97132972
1314891617.34051991,0.21341927,-0.10460002,-0.97134497
1314891617.39351988,0.21313377,-0.10495099,-0.97136980
1314891617.44051766,0.21314598,-0.10522154,-0.97133785
1314891617.49351025,0.21319080,-0.10520061,-0.97133028
1314891617.54057980,0.21305808,-0.10516407,-0.97136336
1314891617.59350610,0.21316558,-0.10512441,-0.97134407
1314891617.64058876,0.21330640,-0.10492969,-0.97133421
1314891617.69251704,0.21224660,-0.10575867,-0.97147645
1314891617.74433446,0.21205433,-0.10584030,-0.97150954
1314891617.79259515,0.21213092,-0.10565597,-0.97151289
1314891617.84051871,0.21214486,-0.10564253,-0.97151130
1314891617.89271069,0.21172261,-0.10746947,-0.97140303
1314891617.94053078,0.21175718,-0.10724098,-0.97142075
1314891617.99258852,0.21188919,-0.10711028,-0.97140638
1314891618.04058099,0.21195369,-0.10700774,-0.97140361
1314891618.09375358,0.21172398,-0.10701603,-0.97145279
1314891618.14058375,0.21161685,-0.10723079,-0.97145245
1314891618.19253469,0.21046895,-0.10850009,-0.97156088
1314891618.24062490,0.21056746,-0.10838097,-0.97155283
1314891618.29261374,0.21067956,-0.10811155,-0.97155855
1314891618.34062243,0.21064672,-0.10812615,-0.97156405
1314891618.39259791,0.21036745,-0.10812980,-0.97162415
1314891618.44160318,0.20835437,-0.10885888,-0.97197644
1314891618.49259973,0.20836884,-0.10911063,-0.97194511
1314891618.54059887,0.20835310,-0.10917389,-0.97194138
1314891618.59352231,0.20799199,-0.10918529,-0.97201744
1314891618.64058185,0.20813391,-0.10949412,-0.97195232
1314891618.69367075,0.20597429,-0.10994104,-0.97236185
1314891618.74060822,0.20597448,-0.10986362,-0.97237056
1314891618.79262686,0.20577031,-0.10967084,-0.97243554
1314891618.84062600,0.20568865,-0.10956682,-0.97246455
1314891618.89250469,0.20439554,-0.10904977,-0.97279526
1314891618.94452238,0.20438213,-0.10889539,-0.97281537
1314891618.99359965,0.20417700,-0.10910464,-0.97283500
1314891619.04160213,0.20422800,-0.10932199,-0.97279989
1314891619.09279490,0.20409490,-0.10925907,-0.97283489
1314891619.14161491,0.20333254,-0.10918454,-0.97300288
1314891619.19261026,0.20343133,-0.10933251,-0.97296562
1314891619.24552441,0.20354428,-0.10930538,-0.97294504
1314891619.29260612,0.20351749,-0.10894608,-0.97299095
1314891619.34146404,0.20356611,-0.10899905,-0.97297484
1314891619.39263129,0.20299489,-0.10861314,-0.97313733
1314891619.44156241,0.20320159,-0.10845004,-0.97311238
1314891619.49444485,0.20302386,-0.10846380,-0.97314794
1314891619.54553580,0.20284486,-0.10851257,-0.97317983
1314891619.59262061,0.20287526,-0.10851143,-0.97317362
1314891619.64054799,0.20235411,-0.10860348,-0.97327185
1314891619.69263220,0.20225171,-0.10869384,-0.97328305
1314891619.74551654,0.20218755,-0.10879270,-0.97328534
1314891619.79263091,0.20211274,-0.10868722,-0.97331266
1314891619.84054661,0.20195967,-0.10875405,-0.97333697
1314891619.89262486,0.20098793,-0.10876804,-0.97353653
1314891619.94139695,0.20108803,-0.10859572,-0.97353509
1314891619.99491572,0.20106626,-0.10820675,-0.97358290
1314891620.04050446,0.20114031,-0.10807492,-0.97358225
1314891620.09249616,0.20108057,-0.10800017,-0.97360288
1314891620.14050698,0.20142680,-0.10830788,-0.97349712
1314891620.19254947,0.20121635,-0.10817649,-0.97355525
1314891620.24152112,0.20114599,-0.10820088,-0.97356708
1314891620.29262638,0.20118514,-0.10815418,-0.97356418
1314891620.34160757,0.20129867,-0.10800857,-0.97355688
1314891620.39066029,0.20138459,-0.10730778,-0.97361660
1314891620.44152904,0.20170321,-0.10717903,-0.97356483
1314891620.49253106,0.20147258,-0.10705526,-0.97362620
1314891620.54064703,0.20159259,-0.10711094,-0.97359523
1314891620.59253836,0.20144860,-0.10712397,-0.97362360
1314891620.64151525,0.20143940,-0.10746455,-0.97358797
1314891620.69140053,0.20151442,-0.10744103,-0.97357504
1314891620.74046826,0.20152264,-0.10751207,-0.97356550
1314891620.79252195,0.20147064,-0.10744138,-0.97358406
1314891620.84152675,0.20162558,-0.10753135,-0.97354206
1314891620.89260030,0.20139354,-0.10759273,-0.97358330
1314891620.94054341,0.20119313,-0.10746499,-0.97363884
1314891620.99260950,0.20101871,-0.10720927,-0.97370306
1314891621.04152465,0.20068444,-0.10705627,-0.97378884
1314891621.09248924,0.20067666,-0.10711992,-0.97378345
1314891621.14460325,0.19950355,-0.10743379,-0.97398989
1314891621.19256592,0.19965004,-0.10754541,-0.97394756
1314891621.24055219,0.19983535,-0.10756413,-0.97390749
1314891621.29246855,0.19981151,-0.10758303,-0.97391029
1314891621.34152150,0.20000979,-0.10752325,-0.97387619
1314891621.39245915,0.20012657,-0.10746585,-0.97385853
1314891621.44052339,0.20005787,-0.10712400,-0.97391031
1314891621.49253035,0.20007211,-0.10702000,-0.97391882
1314891621.54062772,0.20016486,-0.10691319,-0.97391149
1314891621.59295297,0.20001907,-0.10687533,-0.97394560
1314891621.64463592,0.19967000,-0.10632606,-0.97407734
1314891621.69258738,0.19949438,-0.10641276,-0.97410385
1314891621.74061131,0.19923633,-0.10635846,-0.97416260
1314891621.79262042,0.19920233,-0.10636595,-0.97416873
1314891621.84458876,0.19938207,-0.10633686,-0.97413513
1314891621.89360905,0.19904222,-0.10600154,-0.97424117
1314891621.94555926,0.19872311,-0.10594318,-0.97431266
1314891621.99261022,0.19853258,-0.10577546,-0.97436973
1314891622.04072785,0.19861605,-0.10580198,-0.97434984
1314891622.09361243,0.19866578,-0.10582869,-0.97433680
1314891622.14162326,0.19868461,-0.10559537,-0.97435827
1314891622.19261956,0.19874314,-0.10625077,-0.97427508
1314891622.24152303,0.19872204,-0.10607621,-0.97429841
1314891622.29251647,0.19876491,-0.10613823,-0.97428291
1314891622.34469390,0.19852606,-0.10585636,-0.97436227
1314891622.39262033,0.19930586,-0.10602990,-0.97418419
1314891622.44159627,0.19960423,-0.10589805,-0.97413744
1314891622.49360204,0.19965741,-0.10600675,-0.97411472
1314891622.54051971,0.19981743,-0.10589987,-0.97409353
1314891622.59360266,0.19967870,-0.10577608,-0.97413543
1314891622.64059520,0.20084496,-0.10542304,-0.97393392
1314891622.69256282,0.20071059,-0.10540757,-0.97396330
1314891622.74076128,0.20061079,-0.10528608,-0.97399700
1314891622.79261255,0.20046734,-0.10511798,-0.97404469
1314891622.84067774,0.20059897,-0.10497851,-0.97403263
1314891622.89252853,0.20158629,-0.10478540,-0.97384957
1314891622.94045615,0.20153977,-0.10467842,-0.97387071
1314891622.99252939,0.20150948,-0.10461937,-0.97388332
1314891623.04068494,0.20150081,-0.10470617,-0.97387578
1314891623.09253287,0.20151555,-0.10456893,-0.97388748
1314891623.14063978,0.20235289,-0.10441883,-0.97372995
1314891623.19428444,0.20231738,-0.10442486,-0.97373668
1314891623.24051905,0.20218424,-0.10440779,-0.97376617
1314891623.29468179,0.20210102,-0.10436600,-0.97378792
1314891623.34059405,0.20210233,-0.10453851,-0.97376914
1314891623.39253092,0.20246744,-0.10476302,-0.97366917
1314891623.44058609,0.20241970,-0.10461483,-0.97369502
1314891623.49410677,0.20238724,-0.10438583,-0.97372635
1314891623.54048681,0.20257979,-0.10425337,-0.97370050
1314891623.59253669,0.20254291,-0.10419117,-0.97371483
1314891623.64060307,0.20286807,-0.10474606,-0.97358760
1314891623.69252968,0.20293028,-0.10480726,-0.97356805
1314891623.74059534,0.20287468,-0.10496295,-0.97356286
1314891623.79253888,0.20272662,-0.10487918,-0.97360273
1314891623.84058881,0.20257228,-0.10495085,-0.97362713
1314891623.89264059,0.20314419,-0.10498181,-0.97350463
1314891623.94060540,0.20308248,-0.10487746,-0.97352875
1314891623.99252462,0.20317945,-0.10478831,-0.97351812
1314891624.04110718,0.20304821,-0.10485541,-0.97353827
1314891624.09246993,0.20308112,-0.10498050,-0.97351793
1314891624.14160538,0.20374148,-0.10446438,-0.97343546
1314891624.19259334,0.20365443,-0.10434700,-0.97346627
1314891624.24112701,0.20397885,-0.10439333,-0.97339337
1314891624.29250979,0.20408730,-0.10427279,-0.97338356
1314891624.34058881,0.20398548,-0.10438015,-0.97339340
1314891624.39249301,0.20435581,-0.10423824,-0.97333093
1314891624.44050479,0.20578866,-0.10362957,-0.97309400
1314891624.49451923,0.20585138,-0.10381239,-0.97306125
1314891624.54058981,0.20591287,-0.10377690,-0.97305203
1314891624.59361124,0.20573277,-0.10367039,-0.97310147
1314891624.64059019,0.20611342,-0.10378802,-0.97300838
1314891624.69258118,0.20588396,-0.10386118,-0.97304915
1314891624.74061346,0.20595243,-0.10382985,-0.97303801
1314891624.79361081,0.20607828,-0.10383585,-0.97301072
1314891624.84563923,0.20591009,-0.10383640,-0.97304627
1314891624.89258122,0.20555856,-0.10449310,-0.97305029
1314891624.94161463,0.20543875,-0.10451339,-0.97307342
1314891624.99353814,0.20566987,-0.10442907,-0.97303365
1314891625.04556274,0.20551407,-0.10432440,-0.97307779
1314891625.09309387,0.20552982,-0.10436906,-0.97306968
1314891625.14558196,0.20461947,-0.10485632,-0.97320914
1314891625.19318986,0.20471408,-0.10484095,-0.97319090
1314891625.24162579,0.20477687,-0.10483291,-0.97317855
1314891625.29258180,0.20482349,-0.10489036,-0.97316255
1314891625.34062266,0.20473658,-0.10497113,-0.97317213
1314891625.39261174,0.20437587,-0.10571040,-0.97316793
1314891625.44153643,0.20446698,-0.10553539,-0.97316778
1314891625.49349093,0.20459341,-0.10548651,-0.97314651
1314891625.54058313,0.20466651,-0.10545038,-0.97313506
1314891625.59259105,0.20469912,-0.10544202,-0.97312910
1314891625.64062548,0.20431818,-0.10594125,-0.97315494
1314891625.69350791,0.20437431,-0.10615847,-0.97311948
1314891625.74162793,0.20424792,-0.10626848,-0.97313401
1314891625.79356766,0.20428750,-0.10608860,-0.97314533
1314891625.84056783,0.20410870,-0.10619488,-0.97317125
1314891625.89355993,0.20415176,-0.10666632,-0.97311066
1314891625.94055033,0.20396580,-0.10648869,-0.97316911
1314891625.99355936,0.20405685,-0.10647434,-0.97315159
1314891626.04047608,0.20421838,-0.10648628,-0.97311640
1314891626.09436965,0.20408194,-0.10652334,-0.97314097
1314891626.14046454,0.20405236,-0.10657318,-0.97314171
1314891626.19153166,0.20413126,-0.10740802,-0.97303337
1314891626.24442506,0.20402732,-0.10719809,-0.97307832
1314891626.29458618,0.20401802,-0.10684647,-0.97311894
1314891626.34059072,0.20416521,-0.10704564,-0.97306618
1314891626.39452338,0.20430581,-0.10679629,-0.97306407
1314891626.44167089,0.20472380,-0.10685241,-0.97297006
1314891626.49258995,0.20488228,-0.10685896,-0.97293598
1314891626.54052210,0.20494475,-0.10656713,-0.97295483
1314891626.59351826,0.20512157,-0.10646159,-0.97292912
1314891626.64152813,0.20523943,-0.10622171,-0.97293048
1314891626.69361353,0.20673678,-0.10585259,-0.97265366
1314891626.74151278,0.20673740,-0.10578687,-0.97266067
1314891626.79249644,0.20664929,-0.10575048,-0.97268335
1314891626.84151411,0.20656076,-0.10591496,-0.97268426
1314891626.89253521,0.20718540,-0.10608858,-0.97253248
1314891626.94151974,0.20708318,-0.10590602,-0.97257415
1314891626.99264932,0.20693928,-0.10581378,-0.97261482
1314891627.04047656,0.20727109,-0.10576655,-0.97254930
1314891627.09265208,0.20735526,-0.10577916,-0.97252998
1314891627.14047146,0.20761933,-0.10595816,-0.97245415
1314891627.19261360,0.20780287,-0.10574984,-0.97243763
1314891627.24114394,0.20783974,-0.10579422,-0.97242492
1314891627.29253221,0.20795520,-0.10589393,-0.97238938
1314891627.34059095,0.20782307,-0.10582075,-0.97242560
1314891627.39361382,0.20797328,-0.10584931,-0.97239037
1314891627.44161892,0.20850644,-0.10570851,-0.97229151
1314891627.49261618,0.20854088,-0.10587590,-0.97226591
1314891627.54100728,0.20845154,-0.10590159,-0.97228227
1314891627.59258723,0.20850887,-0.10587631,-0.97227273
1314891627.64144254,0.20811170,-0.10547896,-0.97240100
